Location: Béaulencourt
(50.0796°N, 2.8795°E)
Time: 03:23:27
(UTC+00:00)

ARIANE 6 FM1 Upper Stage - Pass Details

Date: 13 March 2026
Orbit: 525 x 604 km, 62.0° (Epoch: 17 April)

Event Time Altitude Azimuth Distance (km) Brightness Sun altitude
Exits shadow 04:22:58 27° 207° (SSW) 1,067 3.7 -17.3°
Maximum altitude 04:25:04 67° 132° (SE) 589 2.8 -17.0°
Drops below altitude 10° 04:29:03 10° 50° (NE) 1,790 6.3 -16.4°
Sets 04:31:14 0° 48° (NE) 2,676 7.3 -16.0°
